Nantucket, MA

7:08 PM EST on February 27, 2017 (GMT -0500)
Nantucket Memorial

Weather History for KACK - January, 2013

Change the Weather History Date:

Tuesday, January 8, 2013

  Actual Average Record
Temperature  
Mean Temperature 42 °F -  
Max Temperature 48 °F 34 °F 54 °F (1958)
Min Temperature 37 °F 21 °F 0 °F (1970)
Degree Days  
Heating Degree Days 22    
Moisture  
Dew Point 36 °F    
Average Humidity 81    
Maximum Humidity 93    
Minimum Humidity 66    
Precipitation  
Precipitation 0.00 in - - ()
Sea Level Pressure  
Sea Level Pressure 30.38 in    
Wind  
Wind Speed 12 mph (SW)    
Max Wind Speed 20 mph    
Max Gust Speed 29 mph    
Visibility 10 miles    
Events      
Averages and records for this station are not official NWS values.
T = Trace of Precipitation, MM = Missing Value Source: NWS Daily Summary

Daily Weather History Graph

Daily Weather History Graph

Search for Another Location

Airport or City:

Trip Planner

Search our weather history database for the weather conditions in past years. The results will help you decide how hot, cold, wet, or windy it might be!

Date:

Astronomy

Jan. 08, 2013 Rise Set
Actual Time 7:05 AM EST 4:28 PM EST
Civil Twilight 6:34 AM EST 4:59 PM EST
Nautical Twilight 6:00 AM EST 5:33 PM EST
Astronomical Twilight 5:27 AM EST 6:07 PM EST
Moon 3:34 AM EST (1/8) 1:28 PM EST (1/8)
Length of Visible Light 10h 24m
Length of Day
9h 23m
Waning Crescent, 14% of the Moon is Illuminated
Jan 8
Waning Crescent
Jan 11
New
Jan 18
First Quarter
Jan 26
Full
Feb 3
Last Quarter

Hourly Weather History & Observations

Time (EST) Temp. Windchill Dew Point Humidity Pressure Visibility Wind Dir Wind Speed Gust Speed Precip Events Conditions
12:53 AM 37.0 °F 29.8 °F 32.0 °F 82% 30.40 in 10.0 mi South 10.4 mph - N/A   Mostly Cloudy
1:53 AM 37.0 °F 30.4 °F 33.1 °F 86% 30.40 in 10.0 mi South 9.2 mph - N/A   Partly Cloudy
2:53 AM 37.0 °F 30.4 °F 34.0 °F 89% 30.40 in 10.0 mi South 9.2 mph - N/A   Clear
3:53 AM 37.9 °F 32.1 °F 35.1 °F 89% 30.38 in 10.0 mi South 8.1 mph - N/A   Clear
4:53 AM 37.9 °F 30.9 °F 36.0 °F 93% 30.37 in 10.0 mi SSW 10.4 mph - N/A   Clear
5:53 AM 39.0 °F 33.4 °F 37.0 °F 93% 30.38 in 10.0 mi SSW 8.1 mph - N/A   Scattered Clouds
6:53 AM 41.0 °F 34.3 °F 36.0 °F 82% 30.38 in 10.0 mi SW 11.5 mph - N/A   Mostly Cloudy
7:53 AM 43.0 °F 34.5 °F 36.0 °F 76% 30.40 in 10.0 mi WSW 19.6 mph 26.5 mph N/A   Clear
8:53 AM 46.0 °F 38.5 °F 37.0 °F 71% 30.40 in 10.0 mi WSW 19.6 mph 27.6 mph N/A   Overcast
9:53 AM 46.0 °F 38.8 °F 36.0 °F 68% 30.42 in 10.0 mi West 18.4 mph 26.5 mph N/A   Overcast
10:53 AM 46.0 °F 38.5 °F 36.0 °F 68% 30.39 in 10.0 mi West 19.6 mph 28.8 mph N/A   Mostly Cloudy
11:53 AM 46.9 °F - 37.0 °F 68% 30.37 in 10.0 mi WSW 17.3 mph - N/A   Scattered Clouds
12:53 PM 48.0 °F - 37.0 °F 66% 30.34 in 10.0 mi WSW 18.4 mph - N/A   Clear
1:53 PM 46.0 °F 39.3 °F 37.0 °F 71% 30.33 in 9.0 mi WSW 16.1 mph - N/A   Clear
2:53 PM 46.0 °F 39.6 °F 37.0 °F 71% 30.36 in 10.0 mi WSW 15.0 mph - N/A   Clear
3:53 PM 44.1 °F 37.1 °F 37.0 °F 76% 30.36 in 10.0 mi WSW 15.0 mph - N/A   Clear
4:53 PM 42.1 °F 35.7 °F 37.0 °F 82% 30.36 in 9.0 mi WSW 11.5 mph - N/A   Clear
5:53 PM 41.0 °F 34.3 °F 37.9 °F 89% 30.35 in 9.0 mi SW 11.5 mph - N/A   Clear
6:53 PM 41.0 °F 34.7 °F 37.9 °F 89% 30.36 in 7.0 mi WSW 10.4 mph - N/A   Clear
7:53 PM 42.1 °F 36.6 °F 39.0 °F 89% 30.37 in 10.0 mi WSW 9.2 mph - N/A   Clear
8:53 PM 42.1 °F 36.1 °F 37.9 °F 85% 30.37 in 10.0 mi West 10.4 mph - N/A   Clear
9:53 PM 39.9 °F 34.5 °F 37.0 °F 89% 30.38 in 10.0 mi West 8.1 mph - N/A   Clear
10:53 PM 39.9 °F 33.9 °F 37.0 °F 89% 30.37 in 10.0 mi West 9.2 mph - N/A   Clear
11:53 PM 39.9 °F 34.5 °F 37.0 °F 89% 30.38 in 10.0 mi West 8.1 mph - N/A   Clear